{"data":{"norad_id":52987,"intl_designator":"2022-076B","name":"STARLINK-4259","alt_names":[],"object_type":"PAYLOAD","status":"ACTIVE","operator":null,"country":"US","launch_date":"2022-07-07","launch_site_code":"AFETR","launch_vehicle":null,"mission":null,"orbit_class":"UNKNOWN","rcs_meters":null,"size_class":null,"mass_kg":null,"dimensions":null,"purposes":["comms"],"wikipedia_slug":null,"has_3d_model":false,"image_url":null,"decayed_at":null,"tle_current":{"epoch":"2026-05-25T04:36:34.492032Z","epoch_age_seconds":55549,"freshness":"FRESH","line1":"1 52987U 22076B   26145.19206588  .00000357  00000+0  40499-4 0  9999","line2":"2 52987  53.2135 120.6879 0001150  77.7967 282.3154 15.08841865214250","mean_motion":15.08841865,"eccentricity":0.000115,"inclination_deg":53.2135,"raan_deg":120.6879,"arg_perigee_deg":77.7967,"mean_anomaly_deg":282.3154,"bstar":4.0499e-5,"rev_number":21425,"period_min":95.437436712428,"perigee_km":538.94213282191,"apogee_km":540.53324400025,"semimajor_km":6917.8746884111,"source":"CELESTRAK","updated_at":"2026-05-25T13:38:17.272935Z"}}}